Location: *
(50.3194°N, 7.1067°E)
Time: 07:08:08
(UTC+00:00)

Cosmos 1741 Rocket - Pass Details

Date: 22 September 2019
Orbit: 761 x 783 km, 74.0° (Epoch: 20 October)

Event Time Altitude Azimuth Distance (km) Brightness Sun altitude
Rises 19:21:30 0° 337° (NNW) 3,284 8.0 -18.1°
Reaches altitude 10° 19:23:56 10° 341° (NNW) 2,352 7.1 -18.4°
Maximum altitude 19:29:15 64° 62° (ENE) 871 4.1 -19.2°
Enters shadow 19:31:14 37° 129° (SE) 1,196 4.5 -19.5°
